Location: Ellerstadt
(49.4644°N, 8.2615°E)
Time: 05:14:42
(UTC+00:00)

Meteor 2-4 Rocket - Pass Details

Date: 03 March 2021
Orbit: 799 x 908 km, 81.2° (Epoch: 11 April)

Event Time Altitude Azimuth Distance (km) Brightness Sun altitude
Rises 18:45:02 0° 346° (NNW) 3,484 7.2 -15.7°
Reaches altitude 10° 18:47:27 10° 346° (NNW) 2,556 6.5 -16.1°
Maximum altitude 18:53:18 79° 261° (W) 919 3.9 -17.0°
Drops below altitude 10° 18:59:12 10° 175° (S) 2,582 6.1 -17.9°
Sets 19:01:40 0° 175° (S) 3,523 6.8 -18.3°
